Year,Month,Day,Hour,Minute,Value (Times are PST for temperature in C)
2015,04,26,00,00,5.40
2015,04,26,00,01,5.40
2015,04,26,00,02,5.30
2015,04,26,00,03,5.30
2015,04,26,00,04,5.20
2015,04,26,00,05,5.10
2015,04,26,00,06,5.10
2015,04,26,00,07,5.00
2015,04,26,00,08,5.00
2015,04,26,00,09,4.90
2015,04,26,00,10,4.90
2015,04,26,00,11,4.90
2015,04,26,00,12,4.80
2015,04,26,00,13,4.80
2015,04,26,00,14,4.80
2015,04,26,00,15,4.70
2015,04,26,00,16,4.70
2015,04,26,00,17,4.70
2015,04,26,00,18,4.60
2015,04,26,00,19,4.60
2015,04,26,00,20,4.60
2015,04,26,00,21,4.60
2015,04,26,00,22,4.60
2015,04,26,00,23,4.60
2015,04,26,00,24,4.50
2015,04,26,00,25,4.50
2015,04,26,00,26,4.50
2015,04,26,00,27,4.40
2015,04,26,00,28,4.40
2015,04,26,00,29,4.40
2015,04,26,00,30,4.30
2015,04,26,00,31,4.30
2015,04,26,00,32,4.30
2015,04,26,00,33,4.20
2015,04,26,00,34,4.20
2015,04,26,00,35,4.20
2015,04,26,00,36,4.20
2015,04,26,00,37,4.10
2015,04,26,00,38,4.10
2015,04,26,00,39,4.10
2015,04,26,00,40,4.10
2015,04,26,00,41,4.10
2015,04,26,00,42,4.00
2015,04,26,00,43,4.00
2015,04,26,00,44,4.00
2015,04,26,00,45,4.00
2015,04,26,00,46,3.90
2015,04,26,00,47,3.90
2015,04,26,00,48,3.90
2015,04,26,00,49,3.90
2015,04,26,00,50,3.90
2015,04,26,00,51,3.80
2015,04,26,00,52,3.80
2015,04,26,00,53,3.80
2015,04,26,00,54,3.80
2015,04,26,00,55,3.70
2015,04,26,00,56,3.70
2015,04,26,00,57,3.70
2015,04,26,00,58,3.70
2015,04,26,00,59,3.70
2015,04,26,01,00,3.60
2015,04,26,01,01,3.60
2015,04,26,01,02,3.60
2015,04,26,01,03,3.60
2015,04,26,01,04,3.50
2015,04,26,01,05,3.50
2015,04,26,01,06,3.50
2015,04,26,01,07,3.50
2015,04,26,01,08,3.50
2015,04,26,01,09,3.50
2015,04,26,01,10,3.50
2015,04,26,01,11,3.50
2015,04,26,01,12,3.50
2015,04,26,01,13,3.50
2015,04,26,01,14,3.50
2015,04,26,01,15,3.50
2015,04,26,01,16,3.50
2015,04,26,01,17,3.50
2015,04,26,01,18,3.50
2015,04,26,01,19,3.50
2015,04,26,01,20,3.50
2015,04,26,01,21,3.50
2015,04,26,01,22,3.50
2015,04,26,01,23,3.50
2015,04,26,01,24,3.40
2015,04,26,01,25,3.40
2015,04,26,01,26,3.40
2015,04,26,01,27,3.40
2015,04,26,01,28,3.40
2015,04,26,01,29,3.40
2015,04,26,01,30,3.40
2015,04,26,01,31,3.40
2015,04,26,01,32,3.40
2015,04,26,01,33,3.40
2015,04,26,01,34,3.40
2015,04,26,01,35,3.40
2015,04,26,01,36,3.40
2015,04,26,01,37,3.40
2015,04,26,01,38,3.40
2015,04,26,01,39,3.40
2015,04,26,01,40,3.40
2015,04,26,01,41,3.30
2015,04,26,01,42,3.30
2015,04,26,01,43,3.30
2015,04,26,01,44,3.30
2015,04,26,01,45,3.30
2015,04,26,01,46,3.30
2015,04,26,01,47,3.30
2015,04,26,01,48,3.30
2015,04,26,01,49,3.30
2015,04,26,01,50,3.30
2015,04,26,01,51,3.30
2015,04,26,01,52,3.20
2015,04,26,01,53,3.20
2015,04,26,01,54,3.20
2015,04,26,01,55,3.20
2015,04,26,01,56,3.20
2015,04,26,01,57,3.20
2015,04,26,01,58,3.10
2015,04,26,01,59,3.10
2015,04,26,02,00,3.10
2015,04,26,02,01,3.10
2015,04,26,02,02,3.10
2015,04,26,02,03,3.10
2015,04,26,02,04,3.00
2015,04,26,02,05,3.00
2015,04,26,02,06,3.00
2015,04,26,02,07,3.00
2015,04,26,02,08,3.00
2015,04,26,02,09,3.00
2015,04,26,02,10,3.00
2015,04,26,02,11,3.00
2015,04,26,02,12,3.00
2015,04,26,02,13,3.00
2015,04,26,02,14,3.00
2015,04,26,02,15,3.10
2015,04,26,02,16,3.10
2015,04,26,02,17,3.10
2015,04,26,02,18,3.10
2015,04,26,02,19,3.10
2015,04,26,02,20,3.10
2015,04,26,02,21,3.10
2015,04,26,02,22,3.10
2015,04,26,02,23,3.10
2015,04,26,02,24,3.10
2015,04,26,02,25,3.10
2015,04,26,02,26,3.10
2015,04,26,02,27,3.10
2015,04,26,02,28,3.00
2015,04,26,02,29,3.00
2015,04,26,02,30,3.00
2015,04,26,02,31,3.00
2015,04,26,02,32,2.90
2015,04,26,02,33,2.90
2015,04,26,02,34,2.90
2015,04,26,02,35,2.90
2015,04,26,02,36,2.90
2015,04,26,02,37,2.90
2015,04,26,02,38,2.90
2015,04,26,02,39,2.80
2015,04,26,02,40,2.80
2015,04,26,02,41,2.80
2015,04,26,02,42,2.80
2015,04,26,02,43,2.80
2015,04,26,02,44,2.80
2015,04,26,02,45,2.80
2015,04,26,02,46,2.80
2015,04,26,02,47,2.80
2015,04,26,02,48,2.80
2015,04,26,02,49,2.80
2015,04,26,02,50,2.80
2015,04,26,02,51,2.80
2015,04,26,02,52,2.80
2015,04,26,02,53,2.80
2015,04,26,02,54,2.80
2015,04,26,02,55,2.80
2015,04,26,02,56,2.80
2015,04,26,02,57,2.80
2015,04,26,02,58,2.80
2015,04,26,02,59,2.80
2015,04,26,03,00,2.80
2015,04,26,03,01,2.80
2015,04,26,03,02,2.90
2015,04,26,03,03,2.80
2015,04,26,03,04,2.90
2015,04,26,03,05,2.80
2015,04,26,03,06,2.80
2015,04,26,03,07,2.80
2015,04,26,03,08,2.80
2015,04,26,03,09,2.80
2015,04,26,03,10,2.80
2015,04,26,03,11,2.80
2015,04,26,03,12,2.80
2015,04,26,03,13,2.80
2015,04,26,03,14,2.80
2015,04,26,03,15,2.80
2015,04,26,03,16,2.80
2015,04,26,03,17,2.80
2015,04,26,03,18,2.80
2015,04,26,03,19,2.80
2015,04,26,03,20,2.80
2015,04,26,03,21,2.80
2015,04,26,03,22,2.80
2015,04,26,03,23,2.80
2015,04,26,03,24,2.80
2015,04,26,03,25,2.80
2015,04,26,03,26,2.80
2015,04,26,03,27,2.80
2015,04,26,03,28,2.80
2015,04,26,03,29,2.80
2015,04,26,03,30,2.80
2015,04,26,03,31,2.80
2015,04,26,03,32,2.80
2015,04,26,03,33,2.80
2015,04,26,03,34,2.80
2015,04,26,03,35,2.80
2015,04,26,03,36,2.90
2015,04,26,03,37,2.90
2015,04,26,03,38,2.90
2015,04,26,03,39,2.90
2015,04,26,03,40,2.90
2015,04,26,03,41,2.90
2015,04,26,03,42,2.90
2015,04,26,03,43,2.90
2015,04,26,03,44,2.90
2015,04,26,03,45,2.90
2015,04,26,03,46,2.90
2015,04,26,03,47,2.90
2015,04,26,03,48,2.90
2015,04,26,03,49,2.90
2015,04,26,03,50,2.90
2015,04,26,03,51,2.80
2015,04,26,03,52,2.80
2015,04,26,03,53,2.80
2015,04,26,03,54,2.80
2015,04,26,03,55,2.80
2015,04,26,03,56,2.80
2015,04,26,03,57,2.80
2015,04,26,03,58,2.80
2015,04,26,03,59,2.80
2015,04,26,04,00,2.80
2015,04,26,04,01,2.80
2015,04,26,04,02,2.80
2015,04,26,04,03,2.80
2015,04,26,04,04,2.80
2015,04,26,04,05,2.80
2015,04,26,04,06,2.80
2015,04,26,04,07,2.80
2015,04,26,04,08,2.80
2015,04,26,04,09,2.80
2015,04,26,04,10,2.80
2015,04,26,04,11,2.80
2015,04,26,04,12,2.80
2015,04,26,04,13,2.80
2015,04,26,04,14,2.80
2015,04,26,04,15,2.80
2015,04,26,04,16,2.80
2015,04,26,04,17,2.80
2015,04,26,04,18,2.80
2015,04,26,04,19,2.80
2015,04,26,04,20,2.80
2015,04,26,04,21,2.80
2015,04,26,04,22,2.80
2015,04,26,04,23,2.80
2015,04,26,04,24,2.80
2015,04,26,04,25,2.80
2015,04,26,04,26,2.80
2015,04,26,04,27,2.80
2015,04,26,04,28,2.80
2015,04,26,04,29,2.80
2015,04,26,04,30,2.80
2015,04,26,04,31,2.80
2015,04,26,04,32,2.80
2015,04,26,04,33,2.80
2015,04,26,04,34,2.80
2015,04,26,04,35,2.90
2015,04,26,04,36,2.90
2015,04,26,04,37,2.90
2015,04,26,04,38,2.90
2015,04,26,04,39,2.90
2015,04,26,04,40,2.90
2015,04,26,04,41,2.90
2015,04,26,04,42,2.90
2015,04,26,04,43,2.90
2015,04,26,04,44,2.90
2015,04,26,04,45,2.90
2015,04,26,04,46,3.00
2015,04,26,04,47,3.00
2015,04,26,04,48,3.00
2015,04,26,04,49,3.10
2015,04,26,04,50,3.10
2015,04,26,04,51,3.10
2015,04,26,04,52,3.10
2015,04,26,04,53,3.10
2015,04,26,04,54,3.10
2015,04,26,04,55,3.10
2015,04,26,04,56,3.10
2015,04,26,04,57,3.10
2015,04,26,04,58,3.10
2015,04,26,04,59,3.10
2015,04,26,05,00,3.10
2015,04,26,05,01,3.10
2015,04,26,05,02,3.10
2015,04,26,05,03,3.10
2015,04,26,05,04,3.10
2015,04,26,05,05,3.10
2015,04,26,05,06,3.10
2015,04,26,05,07,3.10
2015,04,26,05,08,3.10
2015,04,26,05,09,3.10
2015,04,26,05,10,3.10
2015,04,26,05,11,3.10
2015,04,26,05,12,3.10
2015,04,26,05,13,3.10
2015,04,26,05,14,3.10
2015,04,26,05,15,3.10
2015,04,26,05,16,3.20
2015,04,26,05,17,3.20
2015,04,26,05,18,3.20
2015,04,26,05,19,3.20
2015,04,26,05,20,3.20
2015,04,26,05,21,3.20
2015,04,26,05,22,3.20
2015,04,26,05,23,3.20
2015,04,26,05,24,3.20
2015,04,26,05,25,3.20
2015,04,26,05,26,3.20
2015,04,26,05,27,3.20
2015,04,26,05,28,3.20
2015,04,26,05,29,3.20
2015,04,26,05,30,3.30
2015,04,26,05,31,3.30
2015,04,26,05,32,3.30
2015,04,26,05,33,3.30
2015,04,26,05,34,3.30
2015,04,26,05,35,3.30
2015,04,26,05,36,3.30
2015,04,26,05,37,3.30
2015,04,26,05,38,3.30
2015,04,26,05,39,3.30
2015,04,26,05,40,3.30
2015,04,26,05,41,3.30
2015,04,26,05,42,3.30
2015,04,26,05,43,3.30
2015,04,26,05,44,3.30
2015,04,26,05,45,3.40
2015,04,26,05,46,3.40
2015,04,26,05,47,3.40
2015,04,26,05,48,3.40
2015,04,26,05,49,3.50
2015,04,26,05,50,3.50
2015,04,26,05,51,3.50
2015,04,26,05,52,3.60
2015,04,26,05,53,3.60
2015,04,26,05,54,3.60
2015,04,26,05,55,3.70
2015,04,26,05,56,3.70
2015,04,26,05,57,3.70
2015,04,26,05,58,3.70
2015,04,26,05,59,3.80
2015,04,26,06,00,3.80
2015,04,26,06,01,3.80
2015,04,26,06,02,3.80
2015,04,26,06,03,3.80
2015,04,26,06,04,3.80
2015,04,26,06,05,3.80
2015,04,26,06,06,3.80
2015,04,26,06,07,3.80
2015,04,26,06,08,3.80
2015,04,26,06,09,3.90
2015,04,26,06,10,3.90
2015,04,26,06,11,3.90
2015,04,26,06,12,3.90
2015,04,26,06,13,3.90
2015,04,26,06,14,3.90
2015,04,26,06,15,3.90
2015,04,26,06,16,3.90
2015,04,26,06,17,3.90
2015,04,26,06,18,3.90
2015,04,26,06,19,3.90
2015,04,26,06,20,3.90
2015,04,26,06,21,3.90
2015,04,26,06,22,3.90
2015,04,26,06,23,3.90
2015,04,26,06,24,3.90
2015,04,26,06,25,3.90
2015,04,26,06,26,4.00
2015,04,26,06,27,4.00
2015,04,26,06,28,4.00
2015,04,26,06,29,4.00
2015,04,26,06,30,4.00
2015,04,26,06,31,4.10
2015,04,26,06,32,4.10
2015,04,26,06,33,4.10
2015,04,26,06,34,4.10
2015,04,26,06,35,4.10
2015,04,26,06,36,4.10
2015,04,26,06,37,4.10
2015,04,26,06,38,4.10
2015,04,26,06,39,4.20
2015,04,26,06,40,4.20
2015,04,26,06,41,4.20
2015,04,26,06,42,4.20
2015,04,26,06,43,4.30
2015,04,26,06,44,4.30
2015,04,26,06,45,4.30
2015,04,26,06,46,4.40
2015,04,26,06,47,4.40
2015,04,26,06,48,4.40
2015,04,26,06,49,4.50
2015,04,26,06,50,4.50
2015,04,26,06,51,4.50
2015,04,26,06,52,4.60
2015,04,26,06,53,4.60
2015,04,26,06,54,4.60
2015,04,26,06,55,4.70
2015,04,26,06,56,4.70
2015,04,26,06,57,4.70
2015,04,26,06,58,4.80
2015,04,26,06,59,4.80
2015,04,26,07,00,4.80
2015,04,26,07,01,4.80
2015,04,26,07,02,4.80
2015,04,26,07,03,4.90
2015,04,26,07,04,4.90
2015,04,26,07,05,4.90
2015,04,26,07,06,4.90
2015,04,26,07,07,4.90
2015,04,26,07,08,4.90
2015,04,26,07,09,4.90
2015,04,26,07,10,5.00
2015,04,26,07,11,5.00
2015,04,26,07,12,5.00
2015,04,26,07,13,5.10
2015,04,26,07,14,5.10
2015,04,26,07,15,5.20
2015,04,26,07,16,5.20
2015,04,26,07,17,5.20
2015,04,26,07,18,5.20
2015,04,26,07,19,5.20
2015,04,26,07,20,5.20
2015,04,26,07,21,5.30
2015,04,26,07,22,5.30
2015,04,26,07,23,5.30
2015,04,26,07,24,5.40
2015,04,26,07,25,5.50
2015,04,26,07,26,5.60
2015,04,26,07,27,5.70
2015,04,26,07,28,5.70
2015,04,26,07,29,5.80
2015,04,26,07,30,6.00
2015,04,26,07,31,6.10
2015,04,26,07,32,6.20
2015,04,26,07,33,6.30
2015,04,26,07,34,6.30
2015,04,26,07,35,6.40
2015,04,26,07,36,6.50
2015,04,26,07,37,6.50
2015,04,26,07,38,6.60
2015,04,26,07,39,6.70
2015,04,26,07,40,6.80
2015,04,26,07,41,6.90
2015,04,26,07,42,7.00
2015,04,26,07,43,7.10
2015,04,26,07,44,7.10
2015,04,26,07,45,7.20
2015,04,26,07,46,7.30
2015,04,26,07,47,7.30
2015,04,26,07,48,7.30
2015,04,26,07,49,7.40
2015,04,26,07,50,7.40
2015,04,26,07,51,7.50
2015,04,26,07,52,7.50
2015,04,26,07,53,7.50
2015,04,26,07,54,7.60
2015,04,26,07,55,7.60
2015,04,26,07,56,7.60
2015,04,26,07,57,7.60
2015,04,26,07,58,7.70
2015,04,26,07,59,7.70
2015,04,26,08,00,7.70
2015,04,26,08,01,7.70
2015,04,26,08,02,7.70
2015,04,26,08,03,7.70
2015,04,26,08,04,7.70
2015,04,26,08,05,7.80
2015,04,26,08,06,7.80
2015,04,26,08,07,7.80
2015,04,26,08,08,7.80
2015,04,26,08,09,7.80
2015,04,26,08,10,7.80
2015,04,26,08,11,7.80
2015,04,26,08,12,7.80
2015,04,26,08,13,7.80
2015,04,26,08,14,7.80
2015,04,26,08,15,7.80
2015,04,26,08,16,7.80
2015,04,26,08,17,7.80
2015,04,26,08,18,7.80
2015,04,26,08,19,7.90
2015,04,26,08,20,7.90
2015,04,26,08,21,7.90
2015,04,26,08,22,7.90
2015,04,26,08,23,7.90
2015,04,26,08,24,7.90
2015,04,26,08,25,7.90
2015,04,26,08,26,7.90
2015,04,26,08,27,7.90
2015,04,26,08,28,7.90
2015,04,26,08,29,7.90
2015,04,26,08,30,8.00
2015,04,26,08,31,8.00
2015,04,26,08,32,8.00
2015,04,26,08,33,8.00
2015,04,26,08,34,8.00
2015,04,26,08,35,8.00
2015,04,26,08,36,8.10
2015,04,26,08,37,8.10
2015,04,26,08,38,8.10
2015,04,26,08,39,8.10
2015,04,26,08,40,8.10
2015,04,26,08,41,8.10
2015,04,26,08,42,8.10
2015,04,26,08,43,8.10
2015,04,26,08,44,8.10
2015,04,26,08,45,8.10
2015,04,26,08,46,8.10
2015,04,26,08,47,8.10
2015,04,26,08,48,8.10
2015,04,26,08,49,8.10
2015,04,26,08,50,8.10
2015,04,26,08,51,8.20
2015,04,26,08,52,8.20
2015,04,26,08,53,8.20
2015,04,26,08,54,8.20
2015,04,26,08,55,8.20
2015,04,26,08,56,8.20
2015,04,26,08,57,8.20
2015,04,26,08,58,8.20
2015,04,26,08,59,8.20
2015,04,26,09,00,8.20
2015,04,26,09,01,8.20
2015,04,26,09,02,8.20
2015,04,26,09,03,8.20
2015,04,26,09,04,8.20
2015,04,26,09,05,8.20
2015,04,26,09,06,8.20
2015,04,26,09,07,8.20
2015,04,26,09,08,8.20
2015,04,26,09,09,8.30
2015,04,26,09,10,8.30
2015,04,26,09,11,8.30
2015,04,26,09,12,8.30
2015,04,26,09,13,8.30
2015,04,26,09,14,8.30
2015,04,26,09,15,8.30
2015,04,26,09,16,8.30
2015,04,26,09,17,8.30
2015,04,26,09,18,8.30
2015,04,26,09,19,8.30
2015,04,26,09,20,8.30
2015,04,26,09,21,8.30
2015,04,26,09,22,8.40
2015,04,26,09,23,8.40
2015,04,26,09,24,8.40
2015,04,26,09,25,8.40
2015,04,26,09,26,8.40
2015,04,26,09,27,8.40
2015,04,26,09,28,8.50
2015,04,26,09,29,8.50
2015,04,26,09,30,8.40
2015,04,26,09,31,8.40
2015,04,26,09,32,8.40
2015,04,26,09,33,8.40
2015,04,26,09,34,8.40
2015,04,26,09,35,8.40
2015,04,26,09,36,8.40
2015,04,26,09,37,8.40
2015,04,26,09,38,8.50
2015,04,26,09,39,8.50
2015,04,26,09,40,8.50
2015,04,26,09,41,8.50
2015,04,26,09,42,8.50
2015,04,26,09,43,8.60
2015,04,26,09,44,8.60
2015,04,26,09,45,8.60
2015,04,26,09,46,8.60
2015,04,26,09,47,8.60
2015,04,26,09,48,8.60
2015,04,26,09,49,8.60
2015,04,26,09,50,8.70
2015,04,26,09,51,8.70
2015,04,26,09,52,8.70
2015,04,26,09,53,8.70
2015,04,26,09,54,8.70
2015,04,26,09,55,8.80
2015,04,26,09,56,8.80
2015,04,26,09,57,8.80
2015,04,26,09,58,8.80
2015,04,26,09,59,8.80
2015,04,26,10,00,8.80
2015,04,26,10,01,8.80
2015,04,26,10,02,8.80
2015,04,26,10,03,8.80
2015,04,26,10,04,8.90
2015,04,26,10,05,8.90
2015,04,26,10,06,9.00
2015,04,26,10,07,9.00
2015,04,26,10,08,9.10
2015,04,26,10,09,9.10
2015,04,26,10,10,9.10
2015,04,26,10,11,9.10
2015,04,26,10,12,9.10
2015,04,26,10,13,9.10
2015,04,26,10,14,9.10
2015,04,26,10,15,9.10
2015,04,26,10,16,9.10
2015,04,26,10,17,9.20
2015,04,26,10,18,9.20
2015,04,26,10,19,9.20
2015,04,26,10,20,9.30
2015,04,26,10,21,9.30
2015,04,26,10,22,9.30
2015,04,26,10,23,9.30
2015,04,26,10,24,9.30
2015,04,26,10,25,9.30
2015,04,26,10,26,9.40
2015,04,26,10,27,9.40
2015,04,26,10,28,9.40
2015,04,26,10,29,9.40
2015,04,26,10,30,9.40
2015,04,26,10,31,9.40
2015,04,26,10,32,9.40
2015,04,26,10,33,9.50
2015,04,26,10,34,9.50
2015,04,26,10,35,9.60
2015,04,26,10,36,9.60
2015,04,26,10,37,9.60
2015,04,26,10,38,9.70
2015,04,26,10,39,9.80
2015,04,26,10,40,9.80
2015,04,26,10,41,9.80
2015,04,26,10,42,9.70
2015,04,26,10,43,9.70
2015,04,26,10,44,9.60
2015,04,26,10,45,9.60
2015,04,26,10,46,9.70
2015,04,26,10,47,9.70
2015,04,26,10,48,9.70
2015,04,26,10,49,9.70
2015,04,26,10,50,9.70
2015,04,26,10,51,9.70
2015,04,26,10,52,9.80
2015,04,26,10,53,9.80
2015,04,26,10,54,9.90
2015,04,26,10,55,9.90
2015,04,26,10,56,9.90
2015,04,26,10,57,9.90
2015,04,26,10,58,10.00
2015,04,26,10,59,10.00
2015,04,26,11,00,10.00
2015,04,26,11,01,10.10
2015,04,26,11,02,10.10
2015,04,26,11,03,10.00
2015,04,26,11,04,10.00
2015,04,26,11,05,9.90
2015,04,26,11,06,9.90
2015,04,26,11,07,9.80
2015,04,26,11,08,9.70
2015,04,26,11,09,9.60
2015,04,26,11,10,9.60
2015,04,26,11,11,9.50
2015,04,26,11,12,9.50
2015,04,26,11,13,9.50
2015,04,26,11,14,9.50
2015,04,26,11,15,9.50
2015,04,26,11,16,9.50
2015,04,26,11,17,9.60
2015,04,26,11,18,9.60
2015,04,26,11,19,9.60
2015,04,26,11,20,9.60
2015,04,26,11,21,9.70
2015,04,26,11,22,9.70
2015,04,26,11,23,9.70
2015,04,26,11,24,9.60
2015,04,26,11,25,9.60
2015,04,26,11,26,9.60
2015,04,26,11,27,9.60
2015,04,26,11,28,9.60
2015,04,26,11,29,9.60
2015,04,26,11,30,9.60
2015,04,26,11,31,9.60
2015,04,26,11,32,9.60
2015,04,26,11,33,9.60
2015,04,26,11,34,9.50
2015,04,26,11,35,9.60
2015,04,26,11,36,9.50
2015,04,26,11,37,9.50
2015,04,26,11,38,9.60
2015,04,26,11,39,9.60
2015,04,26,11,40,9.60
2015,04,26,11,41,9.60
2015,04,26,11,42,9.70
2015,04,26,11,43,9.70
2015,04,26,11,44,9.70
2015,04,26,11,45,9.70
2015,04,26,11,46,9.70
2015,04,26,11,47,9.70
2015,04,26,11,48,9.70
2015,04,26,11,49,9.70
2015,04,26,11,50,9.70
2015,04,26,11,51,9.70
2015,04,26,11,52,9.70
2015,04,26,11,53,9.70
2015,04,26,11,54,9.70
2015,04,26,11,55,9.70
2015,04,26,11,56,9.70
2015,04,26,11,57,9.70
2015,04,26,11,58,9.70
2015,04,26,11,59,9.60
2015,04,26,12,00,9.60
2015,04,26,12,01,9.60
2015,04,26,12,02,9.60
2015,04,26,12,03,9.60
2015,04,26,12,04,9.60
2015,04,26,12,05,9.50
2015,04,26,12,06,9.50
2015,04,26,12,07,9.50
2015,04,26,12,08,9.50
2015,04,26,12,09,9.50
2015,04,26,12,10,9.50
2015,04,26,12,11,9.50
2015,04,26,12,12,9.50
2015,04,26,12,13,9.50
2015,04,26,12,14,9.60
2015,04,26,12,15,9.60
2015,04,26,12,16,9.60
2015,04,26,12,17,9.70
2015,04,26,12,18,9.70
2015,04,26,12,19,9.70
2015,04,26,12,20,9.70
2015,04,26,12,21,9.70
2015,04,26,12,22,9.80
2015,04,26,12,23,9.70
2015,04,26,12,24,9.70
2015,04,26,12,25,9.70
2015,04,26,12,26,9.70
2015,04,26,12,27,9.70
2015,04,26,12,28,9.70
2015,04,26,12,29,9.80
2015,04,26,12,30,9.80
2015,04,26,12,31,9.80
2015,04,26,12,32,9.80
2015,04,26,12,33,9.80
2015,04,26,12,34,9.80
2015,04,26,12,35,9.80
2015,04,26,12,36,9.80
2015,04,26,12,37,9.80
2015,04,26,12,38,9.80
2015,04,26,12,39,9.80
2015,04,26,12,40,9.80
2015,04,26,12,41,9.80
2015,04,26,12,42,9.90
2015,04,26,12,43,9.90
2015,04,26,12,44,9.90
2015,04,26,12,45,10.00
2015,04,26,12,46,10.00
2015,04,26,12,47,10.10
2015,04,26,12,48,10.10
2015,04,26,12,49,10.20
2015,04,26,12,50,10.10
2015,04,26,12,51,10.10
2015,04,26,12,52,10.10
2015,04,26,12,53,10.10
2015,04,26,12,54,10.20
2015,04,26,12,55,10.20
2015,04,26,12,56,10.20
2015,04,26,12,57,10.20
2015,04,26,12,58,10.20
2015,04,26,12,59,10.30
2015,04,26,13,00,10.30
2015,04,26,13,01,10.30
2015,04,26,13,02,10.30
2015,04,26,13,03,10.30
2015,04,26,13,04,10.30
2015,04,26,13,05,10.40
2015,04,26,13,06,10.40
2015,04,26,13,07,10.50
2015,04,26,13,08,10.50
2015,04,26,13,09,10.50
2015,04,26,13,10,10.60
2015,04,26,13,11,10.70
2015,04,26,13,12,10.70
2015,04,26,13,13,10.80
2015,04,26,13,14,10.80
2015,04,26,13,15,10.90
2015,04,26,13,16,11.00
2015,04,26,13,17,11.00
2015,04,26,13,18,11.00
2015,04,26,13,19,11.00
2015,04,26,13,20,11.00
2015,04,26,13,21,11.00
2015,04,26,13,22,11.00
2015,04,26,13,23,11.10
2015,04,26,13,24,11.10
2015,04,26,13,25,11.10
2015,04,26,13,26,11.10
2015,04,26,13,27,11.00
2015,04,26,13,28,11.00
2015,04,26,13,29,11.00
2015,04,26,13,30,11.10
2015,04,26,13,31,11.10
2015,04,26,13,32,11.20
2015,04,26,13,33,11.30
2015,04,26,13,34,11.30
2015,04,26,13,35,11.30
2015,04,26,13,36,11.30
2015,04,26,13,37,11.30
2015,04,26,13,38,11.40
2015,04,26,13,39,11.40
2015,04,26,13,40,11.30
2015,04,26,13,41,11.30
2015,04,26,13,42,11.40
2015,04,26,13,43,11.40
2015,04,26,13,44,11.40
2015,04,26,13,45,11.50
2015,04,26,13,46,11.60
2015,04,26,13,47,11.70
2015,04,26,13,48,11.70
2015,04,26,13,49,11.80
2015,04,26,13,50,11.80
2015,04,26,13,51,11.80
2015,04,26,13,52,11.90
2015,04,26,13,53,11.90
2015,04,26,13,54,12.00
2015,04,26,13,55,12.00
2015,04,26,13,56,12.00
2015,04,26,13,57,12.00
2015,04,26,13,58,12.10
2015,04,26,13,59,12.10
2015,04,26,14,00,12.20
2015,04,26,14,01,12.20
2015,04,26,14,02,12.30
2015,04,26,14,03,12.30
2015,04,26,14,04,12.20
2015,04,26,14,05,12.10
2015,04,26,14,06,12.10
2015,04,26,14,07,12.10
2015,04,26,14,08,12.10
2015,04,26,14,09,12.10
2015,04,26,14,10,12.10
2015,04,26,14,11,12.10
2015,04,26,14,12,12.20
2015,04,26,14,13,12.30
2015,04,26,14,14,12.40
2015,04,26,14,15,12.30
2015,04,26,14,16,12.30
2015,04,26,14,17,12.30
2015,04,26,14,18,12.30
2015,04,26,14,19,12.40
2015,04,26,14,20,12.40
2015,04,26,14,21,12.40
2015,04,26,14,22,12.30
2015,04,26,14,23,12.30
2015,04,26,14,24,12.30
2015,04,26,14,25,12.30
2015,04,26,14,26,12.40
2015,04,26,14,27,12.30
2015,04,26,14,28,12.30
2015,04,26,14,29,12.30
2015,04,26,14,30,12.30
2015,04,26,14,31,12.40
2015,04,26,14,32,12.40
2015,04,26,14,33,12.40
2015,04,26,14,34,12.40
2015,04,26,14,35,12.40
2015,04,26,14,36,12.40
2015,04,26,14,37,12.40
2015,04,26,14,38,12.30
2015,04,26,14,39,12.30
2015,04,26,14,40,12.30
2015,04,26,14,41,12.30
2015,04,26,14,42,12.20
2015,04,26,14,43,12.20
2015,04,26,14,44,12.20
2015,04,26,14,45,12.20
2015,04,26,14,46,12.30
2015,04,26,14,47,12.30
2015,04,26,14,48,12.30
2015,04,26,14,49,12.30
2015,04,26,14,50,12.30
2015,04,26,14,51,12.30
2015,04,26,14,52,12.30
2015,04,26,14,53,12.30
2015,04,26,14,54,12.30
2015,04,26,14,55,12.30
2015,04,26,14,56,12.40
2015,04,26,14,57,12.40
2015,04,26,14,58,12.50
2015,04,26,14,59,12.60
2015,04,26,15,00,12.60
2015,04,26,15,01,12.60
2015,04,26,15,02,12.50
2015,04,26,15,03,12.40
2015,04,26,15,04,12.40
2015,04,26,15,05,12.40
2015,04,26,15,06,12.30
2015,04,26,15,07,12.30
2015,04,26,15,08,12.30
2015,04,26,15,09,12.30
2015,04,26,15,10,12.30
2015,04,26,15,11,12.30
2015,04,26,15,12,12.30
2015,04,26,15,13,12.30
2015,04,26,15,14,12.30
2015,04,26,15,15,12.30
2015,04,26,15,16,12.30
2015,04,26,15,17,12.30
2015,04,26,15,18,12.30
2015,04,26,15,19,12.30
2015,04,26,15,20,12.40
2015,04,26,15,21,12.40
2015,04,26,15,22,12.40
2015,04,26,15,23,12.40
2015,04,26,15,24,12.40
2015,04,26,15,25,12.40
2015,04,26,15,26,12.30
2015,04,26,15,27,12.30
2015,04,26,15,28,12.30
2015,04,26,15,29,12.40
2015,04,26,15,30,12.40
2015,04,26,15,31,12.40
2015,04,26,15,32,12.40
2015,04,26,15,33,12.40
2015,04,26,15,34,12.30
2015,04,26,15,35,12.30
2015,04,26,15,36,12.30
2015,04,26,15,37,12.30
2015,04,26,15,38,12.40
2015,04,26,15,39,12.40
2015,04,26,15,40,12.40
2015,04,26,15,41,12.50
2015,04,26,15,42,12.50
2015,04,26,15,43,12.60
2015,04,26,15,44,12.60
2015,04,26,15,45,12.60
2015,04,26,15,46,12.60
2015,04,26,15,47,12.60
2015,04,26,15,48,12.60
2015,04,26,15,49,12.60
2015,04,26,15,50,12.60
2015,04,26,15,51,12.60
2015,04,26,15,52,12.60
2015,04,26,15,53,12.60
2015,04,26,15,54,12.60
2015,04,26,15,55,12.60
2015,04,26,15,56,12.70
2015,04,26,15,57,12.60
2015,04,26,15,58,12.60
2015,04,26,15,59,12.60
2015,04,26,16,00,12.60
2015,04,26,16,01,12.60
2015,04,26,16,02,12.60
2015,04,26,16,03,12.60
2015,04,26,16,04,12.60
2015,04,26,16,05,12.60
2015,04,26,16,06,12.60
2015,04,26,16,07,12.60
2015,04,26,16,08,12.60
2015,04,26,16,09,12.60
2015,04,26,16,10,12.60
2015,04,26,16,11,12.60
2015,04,26,16,12,12.60
2015,04,26,16,13,12.60
2015,04,26,16,14,12.60
2015,04,26,16,15,12.60
2015,04,26,16,16,12.60
2015,04,26,16,17,12.60
2015,04,26,16,18,12.60
2015,04,26,16,19,12.60
2015,04,26,16,20,12.70
2015,04,26,16,21,12.70
2015,04,26,16,22,12.70
2015,04,26,16,23,12.70
2015,04,26,16,24,12.70
2015,04,26,16,25,12.70
2015,04,26,16,26,12.70
2015,04,26,16,27,12.70
2015,04,26,16,28,12.70
2015,04,26,16,29,12.70
2015,04,26,16,30,12.80
2015,04,26,16,31,12.80
2015,04,26,16,32,12.70
2015,04,26,16,33,12.70
2015,04,26,16,34,12.70
2015,04,26,16,35,12.70
2015,04,26,16,36,12.70
2015,04,26,16,37,12.70
2015,04,26,16,38,12.70
2015,04,26,16,39,12.80
2015,04,26,16,40,12.80
2015,04,26,16,41,12.80
2015,04,26,16,42,12.80
2015,04,26,16,43,12.80
2015,04,26,16,44,12.80
2015,04,26,16,45,12.90
2015,04,26,16,46,12.90
2015,04,26,16,47,12.90
2015,04,26,16,48,12.90
2015,04,26,16,49,12.90
2015,04,26,16,50,12.90
2015,04,26,16,51,12.90
2015,04,26,16,52,13.00
2015,04,26,16,53,13.00
2015,04,26,16,54,13.00
2015,04,26,16,55,13.00
2015,04,26,16,56,13.00
2015,04,26,16,57,13.00
2015,04,26,16,58,13.00
2015,04,26,16,59,13.00
2015,04,26,17,00,13.00
2015,04,26,17,01,13.00
2015,04,26,17,02,13.00
2015,04,26,17,03,13.00
2015,04,26,17,04,13.00
2015,04,26,17,05,13.00
2015,04,26,17,06,13.00
2015,04,26,17,07,13.10
2015,04,26,17,08,13.00
2015,04,26,17,09,13.00
2015,04,26,17,10,13.00
2015,04,26,17,11,13.00
2015,04,26,17,12,13.00
2015,04,26,17,13,13.00
2015,04,26,17,14,13.00
2015,04,26,17,15,13.10
2015,04,26,17,16,13.00
2015,04,26,17,17,13.00
2015,04,26,17,18,13.00
2015,04,26,17,19,13.00
2015,04,26,17,20,13.00
2015,04,26,17,21,12.90
2015,04,26,17,22,12.90
2015,04,26,17,23,12.90
2015,04,26,17,24,12.90
2015,04,26,17,25,13.00
2015,04,26,17,26,13.00
2015,04,26,17,27,13.00
2015,04,26,17,28,13.00
2015,04,26,17,29,13.00
2015,04,26,17,30,12.90
2015,04,26,17,31,12.90
2015,04,26,17,32,12.90
2015,04,26,17,33,12.90
2015,04,26,17,34,12.90
2015,04,26,17,35,12.90
2015,04,26,17,36,13.00
2015,04,26,17,37,13.00
2015,04,26,17,38,13.00
2015,04,26,17,39,13.10
2015,04,26,17,40,13.10
2015,04,26,17,41,13.10
2015,04,26,17,42,13.10
2015,04,26,17,43,13.20
2015,04,26,17,44,13.20
2015,04,26,17,45,13.20
2015,04,26,17,46,13.20
2015,04,26,17,47,13.20
2015,04,26,17,48,13.20
2015,04,26,17,49,13.20
2015,04,26,17,50,13.10
2015,04,26,17,51,13.10
2015,04,26,17,52,13.10